Change the Weather History Date:

Thursday, October 4, 2012

  Actual Average Record
Temperature  
Mean Temperature 76 °F -  
Max Temperature 88 °F 75 °F 89 °F (1964)
Min Temperature 63 °F 51 °F 38 °F (1969)
Cooling Degree Days 10    
Growing Degree Days 26 (Base 50)    
Moisture  
Dew Point 25 °F    
Average Humidity 15    
Maximum Humidity 26    
Minimum Humidity 4    
Precipitation  
Precipitation 0.00 in - - ()
Sea Level Pressure  
Sea Level Pressure 29.86 in    
Wind  
Wind Speed 4 mph (WSW)    
Max Wind Speed 13 mph    
Max Gust Speed 24 mph    
Visibility 10 miles    
Events      
Averages and records for this station are not official NWS values.
T = Trace of Precipitation, MM = Missing Value Source: NWS Daily Summary

Daily Weather History Graph

Daily Weather History Graph

Search for Another Location

Airport or City:

Trip Planner

Search our weather history database for the weather conditions in past years. The results will help you decide how hot, cold, wet, or windy it might be!

Date:

Astronomy

Oct. 04, 2012 Rise Set
Actual Time 6:24 AM MST 6:03 PM MST
Civil Twilight 5:58 AM MST 6:29 PM MST
Nautical Twilight 5:28 AM MST 6:59 PM MST
Astronomical Twilight 4:58 AM MST 7:29 PM MST
Moon 8:49 PM MST (10/4) 10:37 AM MST (10/4)
Length of Visible Light 12h 31m
Length of Day
11h 39m
Waning Gibbous, 81% of the Moon is Illuminated
Oct 4
Waning Gibbous
Oct 8
Last Quarter
Oct 15
New
Oct 21
First Quarter
Oct 29
Full

Hourly Weather History & Observations

Time (MST) Temp. Dew Point Humidity Pressure Visibility Wind Dir Wind Speed Gust Speed Precip Events Conditions
12:53 AM 72.0 °F 28.0 °F 20% 29.85 in 10.0 mi WSW 4.6 mph - N/A   Clear
1:53 AM 72.0 °F 28.0 °F 20% 29.86 in 10.0 mi Variable 3.5 mph - N/A   Clear
2:53 AM 68.0 °F 28.9 °F 23% 29.86 in 10.0 mi Calm Calm - N/A   Clear
3:53 AM 69.1 °F 28.0 °F 22% 29.87 in 10.0 mi Calm Calm - N/A   Clear
4:53 AM 66.9 °F 28.9 °F 24% 29.89 in 10.0 mi NW 3.5 mph - N/A   Clear
5:53 AM 64.9 °F 28.9 °F 26% 29.91 in 10.0 mi Calm Calm - N/A   Clear
6:53 AM 66.0 °F 28.9 °F 25% 29.92 in 10.0 mi Calm Calm - N/A   Clear
7:53 AM 69.1 °F 30.9 °F 24% 29.94 in 10.0 mi Variable 3.5 mph - N/A   Clear
8:53 AM 73.9 °F 30.0 °F 20% 29.94 in 10.0 mi Calm Calm - N/A   Clear
9:53 AM 79.0 °F 30.9 °F 17% 29.94 in 10.0 mi Calm Calm - N/A   Clear
10:53 AM 82.0 °F 28.0 °F 14% 29.91 in 10.0 mi Variable 6.9 mph - N/A   Clear
11:53 AM 84.0 °F 27.0 °F 13% 29.90 in 10.0 mi SW 5.8 mph - N/A   Clear
12:53 PM 86.0 °F 26.1 °F 11% 29.86 in 10.0 mi SW 8.1 mph 21.9 mph N/A   Clear
1:53 PM 87.1 °F 23.0 °F 10% 29.83 in 10.0 mi SW 9.2 mph 18.4 mph N/A   Clear
2:53 PM 87.1 °F 23.0 °F 10% 29.81 in 10.0 mi SW 10.4 mph 19.6 mph N/A   Clear
3:53 PM 88.0 °F 21.0 °F 9% 29.78 in 10.0 mi SW 8.1 mph - N/A   Clear
4:53 PM 86.0 °F 19.9 °F 9% 29.79 in 10.0 mi WSW 6.9 mph - N/A   Clear
5:53 PM 82.9 °F 16.0 °F 8% 29.80 in 10.0 mi West 8.1 mph 20.7 mph N/A   Clear
6:53 PM 82.0 °F 17.1 °F 9% 29.81 in 10.0 mi West 9.2 mph 17.3 mph N/A   Clear
7:53 PM 80.1 °F 21.9 °F 12% 29.83 in 10.0 mi West 12.7 mph 24.2 mph N/A   Clear
8:53 PM 79.0 °F 23.0 °F 13% 29.83 in 10.0 mi West 10.4 mph 19.6 mph N/A   Clear
9:53 PM 77.0 °F 26.1 °F 15% 29.83 in 10.0 mi West 9.2 mph 24.2 mph N/A   Clear
10:53 PM 75.9 °F 24.1 °F 15% 29.85 in 10.0 mi WSW 4.6 mph - N/A   Clear
11:53 PM 72.0 °F 23.0 °F 16% 29.85 in 10.0 mi SW 4.6 mph - N/A   Clear